Time,TemperatureF,DewpointF,PressureIn,WindDirection,WindDirectionDegrees,WindSpeedMPH,WindSpeedGustMPH,Humidity,HourlyPrecipIn,Conditions,Clouds,dailyrainin,SoftwareType,DateUTC
2013-03-21 17:56:00,29.3,0.0,29.54,North,0,0.0,0.0,0,0.00,,,0.00,WUHU21623XXSP,2013-03-21 21:56:00,
2013-03-21 18:01:00,29.1,11.5,29.54,NW,306,3.1,5.6,48,0.00,,,0.00,WUHU21623XXSP,2013-03-21 22:01:00,
2013-03-21 18:07:00,29.5,11.9,29.54,West,270,0.0,5.6,48,0.00,,,0.00,WUHU21623XXSP,2013-03-21 22:07:00,
2013-03-21 18:12:00,29.3,11.7,29.54,West,276,2.4,3.1,48,0.00,,,0.00,WUHU21623XXSP,2013-03-21 22:12:00,
2013-03-21 18:17:00,29.1,11.5,29.55,West,270,0.0,3.1,48,0.00,,,0.00,WUHU21623XXSP,2013-03-21 22:17:00,
2013-03-21 18:22:00,28.8,11.2,29.54,West,270,0.0,2.5,48,0.00,,,0.00,WUHU21623XXSP,2013-03-21 22:22:00,
2013-03-21 18:27:00,28.8,11.2,29.54,WNW,290,2.8,4.0,48,0.00,,,0.00,WUHU21623XXSP,2013-03-21 22:27:00,
2013-03-21 18:32:00,28.8,11.2,29.54,West,270,2.9,4.0,48,0.00,,,0.00,WUHU21623XXSP,2013-03-21 22:32:00,
2013-03-21 18:37:00,28.6,11.0,29.54,WNW,301,2.8,4.7,48,0.00,,,0.00,WUHU21623XXSP,2013-03-21 22:37:00,
2013-03-21 18:42:00,28.6,11.0,29.54,West,276,3.3,4.7,48,0.00,,,0.00,WUHU21623XXSP,2013-03-21 22:42:00,
2013-03-21 18:47:00,28.4,10.9,29.54,NW,316,3.7,6.3,48,0.00,,,0.00,WUHU21623XXSP,2013-03-21 22:47:00,
2013-03-21 18:52:00,28.0,10.5,29.55,NNW,337,2.9,6.3,48,0.00,,,0.00,WUHU21623XXSP,2013-03-21 22:52:00,
2013-03-21 18:57:00,27.9,10.4,29.54,NNW,337,0.0,3.6,48,0.00,,,0.00,WUHU21623XXSP,2013-03-21 22:57:00,
2013-03-21 19:02:00,27.9,10.4,29.54,WNW,292,2.5,3.6,48,0.00,,,0.00,WUHU21623XXSP,2013-03-21 23:02:00,
2013-03-21 19:07:00,27.5,10.0,29.54,West,270,0.0,5.1,48,0.00,,,0.00,WUHU21623XXSP,2013-03-21 23:07:00,
2013-03-21 19:12:00,27.7,10.2,29.54,NNW,337,0.0,5.1,48,0.00,,,0.00,WUHU21623XXSP,2013-03-21 23:12:00,
2013-03-21 19:17:00,27.5,10.0,29.54,NNW,337,4.7,4.7,48,0.00,,,0.00,WUHU21623XXSP,2013-03-21 23:17:00,
2013-03-21 19:22:00,27.3,9.8,29.55,WNW,292,2.8,4.7,48,0.00,,,0.00,WUHU21623XXSP,2013-03-21 23:22:00,
2013-03-21 19:27:00,27.1,9.7,29.55,WNW,292,0.0,3.6,48,0.00,,,0.00,WUHU21623XXSP,2013-03-21 23:27:00,
2013-03-21 19:32:00,27.1,9.7,29.55,WNW,292,5.4,5.4,48,0.00,,,0.00,WUHU21623XXSP,2013-03-21 23:32:00,
2013-03-21 19:37:00,27.0,9.6,29.55,NNW,329,3.1,5.4,48,0.00,,,0.00,WUHU21623XXSP,2013-03-21 23:37:00,
2013-03-21 19:42:00,27.0,9.6,29.55,WNW,298,2.3,4.7,48,0.00,,,0.00,WUHU21623XXSP,2013-03-21 23:42:00,
2013-03-21 19:47:00,27.0,9.6,29.55,South,180,28.4,28.4,48,0.00,,,0.00,WUHU21623XXSP,2013-03-21 23:47:00,
2013-03-21 19:53:00,27.0,9.6,29.55,South,180,28.4,28.4,48,0.00,,,0.00,WUHU21623XXSP,2013-03-21 23:53:00,
2013-03-21 19:58:00,27.0,9.6,29.55,WNW,292,0.0,28.4,48,0.00,,,0.00,WUHU21623XXSP,2013-03-21 23:58:00,
2013-03-21 20:03:00,27.0,9.6,29.55,South,189,11.0,28.4,48,0.00,,,0.00,WUHU21623XXSP,2013-03-22 00:03:00,
2013-03-21 20:08:00,26.8,9.4,29.56,WSW,250,2.3,28.4,48,0.00,,,0.00,WUHU21623XXSP,2013-03-22 00:08:00,
2013-03-21 20:13:00,26.8,9.4,29.56,NNW,337,2.5,4.0,48,0.00,,,0.00,WUHU21623XXSP,2013-03-22 00:13:00,
2013-03-21 20:18:00,26.6,9.2,29.56,NNW,337,1.1,5.8,48,0.00,,,0.00,WUHU21623XXSP,2013-03-22 00:18:00,
2013-03-21 20:23:00,26.4,9.0,29.56,WNW,292,4.1,28.4,48,0.00,,,0.00,WUHU21623XXSP,2013-03-22 00:23:00,
2013-03-21 20:28:00,26.4,9.0,29.56,South,183,15.1,28.4,48,0.00,,,0.00,WUHU21623XXSP,2013-03-22 00:28:00,
2013-03-21 20:33:00,26.6,9.2,29.56,NNW,337,2.0,28.4,48,0.00,,,0.00,WUHU21623XXSP,2013-03-22 00:33:00,
2013-03-21 20:38:00,26.4,9.0,29.56,WNW,292,5.6,7.4,48,0.00,,,0.00,WUHU21623XXSP,2013-03-22 00:38:00,
2013-03-21 20:43:00,26.4,9.0,29.56,WNW,300,2.0,7.4,48,0.00,,,0.00,WUHU21623XXSP,2013-03-22 00:43:00,
2013-03-21 20:48:00,26.4,9.0,29.56,SW,229,5.3,28.4,48,0.00,,,0.00,WUHU21623XXSP,2013-03-22 00:48:00,
2013-03-21 20:53:00,26.2,8.8,29.56,West,270,3.1,28.4,48,0.00,,,0.00,WUHU21623XXSP,2013-03-22 00:53:00,
2013-03-21 20:58:00,26.2,8.8,29.56,South,180,28.4,28.4,48,0.00,,,0.00,WUHU21623XXSP,2013-03-22 00:58:00,
2013-03-21 21:03:00,26.2,8.8,29.56,WNW,292,1.7,28.4,48,0.00,,,0.00,WUHU21623XXSP,2013-03-22 01:03:00,
2013-03-21 21:08:00,26.2,8.8,29.56,NNW,337,1.5,28.4,48,0.00,,,0.00,WUHU21623XXSP,2013-03-22 01:08:00,
2013-03-21 21:13:00,26.2,8.8,29.56,WNW,294,3.2,28.4,48,0.00,,,0.00,WUHU21623XXSP,2013-03-22 01:13:00,
2013-03-21 21:18:00,26.2,8.8,29.56,NW,322,2.6,7.6,48,0.00,,,0.00,WUHU21623XXSP,2013-03-22 01:18:00,
2013-03-21 21:23:00,26.2,8.8,29.57,NNW,345,5.1,6.5,48,0.00,,,0.00,WUHU21623XXSP,2013-03-22 01:23:00,
2013-03-21 21:28:00,26.2,8.8,29.57,WNW,292,4.0,8.1,48,0.00,,,0.00,WUHU21623XXSP,2013-03-22 01:28:00,
2013-03-21 21:33:00,26.1,8.7,29.57,WNW,299,3.1,8.1,48,0.00,,,0.00,WUHU21623XXSP,2013-03-22 01:33:00,
2013-03-21 21:38:00,26.1,8.7,29.58,NW,313,2.8,5.8,48,0.00,,,0.00,WUHU21623XXSP,2013-03-22 01:38:00,
2013-03-21 21:43:00,26.1,8.7,29.58,NNW,337,5.8,8.7,48,0.00,,,0.00,WUHU21623XXSP,2013-03-22 01:43:00,
2013-03-21 21:48:00,26.1,8.7,29.58,WNW,292,1.8,57.0,48,0.00,,,0.00,WUHU21623XXSP,2013-03-22 01:48:00,
2013-03-21 21:53:00,26.1,8.7,29.58,NNW,347,3.1,57.0,48,0.00,,,0.00,WUHU21623XXSP,2013-03-22 01:53:00,
2013-03-21 21:58:00,26.1,8.7,29.58,WNW,292,1.5,6.9,48,0.00,,,0.00,WUHU21623XXSP,2013-03-22 01:58:00,
2013-03-21 22:03:00,26.1,8.7,29.58,NW,315,0.0,4.3,48,0.00,,,0.00,WUHU21623XXSP,2013-03-22 02:03:00,
2013-03-21 22:08:00,26.1,8.7,29.59,NNW,330,2.3,2.7,48,0.00,,,0.00,WUHU21623XXSP,2013-03-22 02:08:00,
2013-03-21 22:13:00,25.9,8.6,29.59,NW,304,2.6,4.5,48,0.00,,,0.00,WUHU21623XXSP,2013-03-22 02:13:00,
2013-03-21 22:18:00,26.1,8.7,29.59,NW,308,2.4,6.5,48,0.00,,,0.00,WUHU21623XXSP,2013-03-22 02:18:00,
2013-03-21 22:23:00,25.9,8.6,29.59,WNW,303,3.3,14.1,48,0.00,,,0.00,WUHU21623XXSP,2013-03-22 02:23:00,
2013-03-21 22:28:00,25.7,8.4,29.59,NNW,337,4.7,57.0,48,0.00,,,0.00,WUHU21623XXSP,2013-03-22 02:28:00,
2013-03-21 22:33:00,25.7,8.4,29.58,North,0,3.4,57.0,48,0.00,,,0.00,WUHU21623XXSP,2013-03-22 02:33:00,
2013-03-21 22:38:00,25.7,8.4,29.58,NNW,328,3.2,7.4,48,0.00,,,0.00,WUHU21623XXSP,2013-03-22 02:38:00,
2013-03-21 22:43:00,25.5,8.2,29.59,WNW,292,6.3,6.7,48,0.00,,,0.00,WUHU21623XXSP,2013-03-22 02:43:00,
2013-03-21 22:49:00,25.5,8.2,29.59,NW,321,3.4,7.2,48,0.00,,,0.00,WUHU21623XXSP,2013-03-22 02:49:00,
2013-03-21 22:54:00,25.5,8.2,29.59,WNW,292,4.7,7.2,48,0.00,,,0.00,WUHU21623XXSP,2013-03-22 02:54:00,
2013-03-21 22:59:00,25.5,8.2,29.59,WNW,292,2.8,5.8,48,0.00,,,0.00,WUHU21623XXSP,2013-03-22 02:59:00,
2013-03-21 23:04:00,25.3,8.0,29.59,WNW,292,0.0,5.1,48,0.00,,,0.00,WUHU21623XXSP,2013-03-22 03:04:00,
2013-03-21 23:09:00,25.2,7.9,29.59,NNW,337,0.0,6.9,48,0.00,,,0.00,WUHU21623XXSP,2013-03-22 03:09:00,
2013-03-21 23:14:00,25.2,7.9,29.59,WNW,292,0.0,6.9,48,0.00,,,0.00,WUHU21623XXSP,2013-03-22 03:14:00,
2013-03-21 23:19:00,25.2,7.9,29.59,NNW,337,3.8,5.8,48,0.00,,,0.00,WUHU21623XXSP,2013-03-22 03:19:00,
2013-03-21 23:24:00,25.2,7.9,29.59,NW,306,3.0,5.8,48,0.00,,,0.00,WUHU21623XXSP,2013-03-22 03:24:00,
2013-03-21 23:29:00,25.0,7.7,29.59,WNW,292,1.1,5.4,48,0.00,,,0.00,WUHU21623XXSP,2013-03-22 03:29:00,
2013-03-21 23:34:00,25.0,7.7,29.59,NW,315,0.0,5.4,48,0.00,,,0.00,WUHU21623XXSP,2013-03-22 03:34:00,
2013-03-21 23:39:00,25.0,7.7,29.60,NNW,337,0.0,2.5,48,0.00,,,0.00,WUHU21623XXSP,2013-03-22 03:39:00,
2013-03-21 23:44:00,25.0,7.7,29.59,WNW,297,3.0,4.7,48,0.00,,,0.00,WUHU21623XXSP,2013-03-22 03:44:00,
2013-03-21 23:49:00,24.8,7.5,29.59,SSW,201,12.9,28.4,48,0.00,,,0.00,WUHU21623XXSP,2013-03-22 03:49:00,
2013-03-21 23:54:00,24.8,7.5,29.60,West,275,1.6,28.4,48,0.00,,,0.00,WUHU21623XXSP,2013-03-22 03:54:00,
2013-03-21 23:59:00,24.4,7.2,29.60,South,185,10.4,28.4,48,0.00,,,0.00,WUHU21623XXSP,2013-03-22 03:59:00,